Time,TemperatureF,DewpointF,PressureIn,WindDirection,WindDirectionDegrees,WindSpeedMPH,WindSpeedGustMPH,Humidity,HourlyPrecipIn,Conditions,Clouds,dailyrainin,SoftwareType,DateUTC
2013-11-18 00:01:00,43.2,36.5,30.11,South,170,0.0,0.0,77,0.00,,,0.00,VWS V13.01,2013-11-18 06:01:00,
2013-11-18 00:06:00,43.0,36.3,30.11,South,170,0.0,0.0,77,0.00,,,0.00,VWS V13.01,2013-11-18 06:06:00,
2013-11-18 00:11:00,43.0,36.6,30.11,SSE,147,0.0,0.0,78,0.00,,,0.00,VWS V13.01,2013-11-18 06:11:00,
2013-11-18 00:16:00,43.4,37.0,30.11,SSE,147,0.0,0.0,78,0.00,,,0.00,VWS V13.01,2013-11-18 06:16:00,
2013-11-18 00:21:00,43.6,36.8,30.11,SSE,147,0.0,0.0,77,0.00,,,0.00,VWS V13.01,2013-11-18 06:21:00,
2013-11-18 00:26:00,43.9,35.5,30.11,SSE,147,0.0,0.0,72,0.00,,,0.00,VWS V13.01,2013-11-18 06:26:00,
2013-11-18 00:31:00,44.1,36.4,30.11,NE,47,2.2,3.1,74,0.00,,,0.00,VWS V13.01,2013-11-18 06:31:00,
2013-11-18 00:36:00,43.7,36.0,30.11,NE,55,3.1,3.1,74,0.00,,,0.00,VWS V13.01,2013-11-18 06:36:00,
2013-11-18 00:41:00,43.7,34.2,30.11,NW,326,0.0,0.0,69,0.00,,,0.00,VWS V13.01,2013-11-18 06:41:00,
2013-11-18 00:46:00,44.1,35.0,30.11,NW,326,0.0,0.0,70,0.00,,,0.00,VWS V13.01,2013-11-18 06:46:00,
2013-11-18 00:51:00,43.6,35.1,30.11,WSW,253,0.0,0.0,72,0.00,,,0.00,VWS V13.01,2013-11-18 06:51:00,
2013-11-18 00:56:00,43.2,35.1,30.11,WSW,253,0.0,0.0,73,0.00,,,0.00,VWS V13.01,2013-11-18 06:56:00,
2013-11-18 01:01:00,43.2,35.5,30.11,SSE,147,2.7,2.7,74,0.00,,,0.00,VWS V13.01,2013-11-18 07:01:00,
2013-11-18 01:06:00,43.6,35.5,30.11,SSE,147,0.0,0.0,73,0.00,,,0.00,VWS V13.01,2013-11-18 07:06:00,
2013-11-18 01:11:00,43.7,34.6,30.11,NNW,348,0.0,0.0,70,0.00,,,0.00,VWS V13.01,2013-11-18 07:11:00,
2013-11-18 01:16:00,44.3,34.8,30.11,NE,37,2.7,2.7,69,0.00,,,0.00,VWS V13.01,2013-11-18 07:16:00,
2013-11-18 01:21:00,44.1,35.0,30.11,North,352,0.0,0.0,70,0.00,,,0.00,VWS V13.01,2013-11-18 07:21:00,
2013-11-18 01:26:00,43.6,34.8,30.11,North,350,2.7,4.0,71,0.00,,,0.00,VWS V13.01,2013-11-18 07:26:00,
2013-11-18 01:30:00,42.8,34.5,30.11,West,278,0.0,0.0,72,0.00,,,0.00,VWS V13.01,2013-11-18 07:30:00,
2013-11-18 01:35:00,42.3,34.3,30.11,NE,37,0.0,0.0,73,0.00,,,0.00,VWS V13.01,2013-11-18 07:35:00,
2013-11-18 01:40:00,41.9,34.3,30.11,East,93,2.2,2.7,74,0.00,,,0.00,VWS V13.01,2013-11-18 07:40:00,
2013-11-18 01:45:00,41.9,34.3,30.11,WSW,241,3.6,3.6,74,0.00,,,0.00,VWS V13.01,2013-11-18 07:45:00,
2013-11-18 01:50:00,41.4,34.4,30.11,NNW,335,0.0,0.0,76,0.00,,,0.00,VWS V13.01,2013-11-18 07:50:00,
2013-11-18 01:55:00,41.2,34.6,30.11,NE,41,3.6,3.6,77,0.00,,,0.00,VWS V13.01,2013-11-18 07:55:00,
2013-11-18 02:00:00,40.7,33.7,30.11,NE,41,0.0,0.0,76,0.00,,,0.00,VWS V13.01,2013-11-18 08:00:00,
2013-11-18 02:05:00,40.5,33.5,30.11,NE,48,0.0,0.0,76,0.00,,,0.00,VWS V13.01,2013-11-18 08:05:00,
2013-11-18 02:10:00,40.3,33.0,30.11,NNE,28,0.0,0.0,75,0.00,,,0.00,VWS V13.01,2013-11-18 08:10:00,
2013-11-18 02:15:00,40.5,32.9,30.14,WSW,255,2.7,3.1,74,0.00,,,0.00,VWS V13.01,2013-11-18 08:15:00,
2013-11-18 02:20:00,40.1,33.2,30.14,NE,44,2.2,2.2,76,0.00,,,0.00,VWS V13.01,2013-11-18 08:20:00,
2013-11-18 02:25:00,40.1,33.5,30.14,NE,44,3.6,3.6,77,0.00,,,0.00,VWS V13.01,2013-11-18 08:25:00,
2013-11-18 02:30:00,40.0,33.0,30.11,NNE,31,2.7,3.1,76,0.00,,,0.00,VWS V13.01,2013-11-18 08:30:00,
2013-11-18 02:35:00,40.0,34.0,30.11,NE,34,3.1,3.1,79,0.00,,,0.00,VWS V13.01,2013-11-18 08:35:00,
2013-11-18 02:40:00,39.6,34.3,30.14,NE,40,2.7,2.7,81,0.00,,,0.00,VWS V13.01,2013-11-18 08:40:00,
2013-11-18 02:45:00,39.2,33.9,30.14,NE,52,2.2,2.7,81,0.00,,,0.00,VWS V13.01,2013-11-18 08:45:00,
2013-11-18 02:50:00,39.4,33.1,30.14,NE,52,0.0,0.0,78,0.00,,,0.00,VWS V13.01,2013-11-18 08:50:00,
2013-11-18 02:55:00,39.8,33.5,30.14,NE,47,0.0,0.0,78,0.00,,,0.00,VWS V13.01,2013-11-18 08:55:00,
2013-11-18 03:00:00,39.8,33.5,30.14,NE,52,0.0,0.0,78,0.00,,,0.00,VWS V13.01,2013-11-18 09:00:00,
2013-11-18 03:05:00,39.4,33.1,30.14,NE,52,0.0,0.0,78,0.00,,,0.00,VWS V13.01,2013-11-18 09:05:00,
2013-11-18 03:10:00,39.2,33.0,30.14,WSW,254,0.0,0.0,78,0.00,,,0.00,VWS V13.01,2013-11-18 09:10:00,
2013-11-18 03:15:00,38.9,32.9,30.14,WSW,246,0.0,0.0,79,0.00,,,0.00,VWS V13.01,2013-11-18 09:15:00,
2013-11-18 03:20:00,38.7,33.7,30.14,WSW,258,0.0,0.0,82,0.00,,,0.00,VWS V13.01,2013-11-18 09:20:00,
2013-11-18 03:25:00,38.3,33.6,30.14,WSW,258,0.0,0.0,83,0.00,,,0.00,VWS V13.01,2013-11-18 09:25:00,
2013-11-18 03:30:00,38.3,33.6,30.14,WSW,237,0.0,0.0,83,0.00,,,0.00,VWS V13.01,2013-11-18 09:30:00,
2013-11-18 03:35:00,38.5,33.8,30.14,WSW,237,0.0,0.0,83,0.00,,,0.00,VWS V13.01,2013-11-18 09:35:00,
2013-11-18 03:40:00,38.5,34.1,30.14,WSW,246,0.0,0.0,84,0.00,,,0.00,VWS V13.01,2013-11-18 09:40:00,
2013-11-18 03:45:00,38.3,33.6,30.14,SW,232,0.0,0.0,83,0.00,,,0.00,VWS V13.01,2013-11-18 09:45:00,
2013-11-18 03:50:00,38.3,33.3,30.14,SW,234,0.0,0.0,82,0.00,,,0.00,VWS V13.01,2013-11-18 09:50:00,
2013-11-18 03:55:00,38.3,33.6,30.14,North,9,0.0,0.0,83,0.00,,,0.00,VWS V13.01,2013-11-18 09:55:00,
2013-11-18 04:00:00,38.0,33.6,30.14,NE,36,0.0,0.0,84,0.00,,,0.00,VWS V13.01,2013-11-18 10:00:00,
2013-11-18 04:05:00,37.6,32.9,30.14,NE,36,0.0,0.0,83,0.00,,,0.00,VWS V13.01,2013-11-18 10:05:00,
2013-11-18 04:10:00,37.4,33.1,30.14,NE,36,0.0,0.0,84,0.00,,,0.00,VWS V13.01,2013-11-18 10:10:00,
2013-11-18 04:15:00,37.4,33.3,30.17,NE,36,0.0,0.0,85,0.00,,,0.00,VWS V13.01,2013-11-18 10:15:00,
2013-11-18 04:20:00,37.6,33.5,30.17,NE,36,0.0,0.0,85,0.00,,,0.00,VWS V13.01,2013-11-18 10:20:00,
2013-11-18 04:25:00,37.8,33.4,30.17,NE,36,0.0,0.0,84,0.00,,,0.00,VWS V13.01,2013-11-18 10:25:00,
2013-11-18 04:30:00,38.0,32.7,30.17,NE,36,0.0,0.0,81,0.00,,,0.00,VWS V13.01,2013-11-18 10:30:00,
2013-11-18 04:35:00,38.0,32.1,30.17,NE,36,0.0,0.0,79,0.00,,,0.00,VWS V13.01,2013-11-18 10:35:00,
2013-11-18 04:40:00,38.2,32.8,30.17,NE,36,0.0,0.0,81,0.00,,,0.00,VWS V13.01,2013-11-18 10:40:00,
2013-11-18 04:45:00,38.2,32.8,30.17,NE,36,0.0,0.0,81,0.00,,,0.00,VWS V13.01,2013-11-18 10:45:00,
2013-11-18 04:50:00,38.0,33.0,30.17,NE,36,0.0,0.0,82,0.00,,,0.00,VWS V13.01,2013-11-18 10:50:00,
2013-11-18 04:55:00,37.6,32.6,30.17,NE,36,0.0,0.0,82,0.00,,,0.00,VWS V13.01,2013-11-18 10:55:00,
2013-11-18 05:00:00,37.3,32.3,30.17,NE,36,0.0,0.0,82,0.00,,,0.00,VWS V13.01,2013-11-18 11:00:00,
2013-11-18 05:05:00,37.3,32.3,30.17,NE,36,0.0,0.0,82,0.00,,,0.00,VWS V13.01,2013-11-18 11:05:00,
2013-11-18 05:10:00,37.1,32.1,30.17,NE,36,0.0,0.0,82,0.00,,,0.00,VWS V13.01,2013-11-18 11:10:00,
2013-11-18 05:15:00,37.3,32.3,30.17,NE,36,0.0,0.0,82,0.00,,,0.00,VWS V13.01,2013-11-18 11:15:00,
2013-11-18 05:20:00,37.3,32.0,30.17,NE,36,0.0,0.0,81,0.00,,,0.00,VWS V13.01,2013-11-18 11:20:00,
2013-11-18 05:25:00,37.4,32.5,30.17,NE,36,0.0,0.0,82,0.00,,,0.00,VWS V13.01,2013-11-18 11:25:00,
2013-11-18 05:30:00,37.6,32.9,30.17,NE,36,0.0,0.0,83,0.00,,,0.00,VWS V13.01,2013-11-18 11:30:00,
2013-11-18 05:35:00,37.6,31.1,30.17,NE,36,0.0,0.0,77,0.00,,,0.00,VWS V13.01,2013-11-18 11:35:00,
2013-11-18 05:40:00,38.9,32.3,30.17,NNE,12,2.2,3.1,77,0.00,,,0.00,VWS V13.01,2013-11-18 11:40:00,
2013-11-18 05:45:00,39.2,32.3,30.17,NNE,23,0.0,0.0,76,0.00,,,0.00,VWS V13.01,2013-11-18 11:45:00,
2013-11-18 05:50:00,39.2,32.3,30.17,NNE,28,0.0,0.0,76,0.00,,,0.00,VWS V13.01,2013-11-18 11:50:00,
2013-11-18 05:55:00,38.7,32.1,30.17,NNE,28,0.0,0.0,77,0.00,,,0.00,VWS V13.01,2013-11-18 11:55:00,
2013-11-18 06:00:00,38.7,31.8,30.20,NNE,28,0.0,0.0,76,0.00,,,0.00,VWS V13.01,2013-11-18 12:00:00,
2013-11-18 06:05:00,38.9,32.0,30.20,NNE,28,0.0,0.0,76,0.00,,,0.00,VWS V13.01,2013-11-18 12:05:00,
2013-11-18 06:10:00,38.3,31.5,30.20,NNE,28,0.0,0.0,76,0.00,,,0.00,VWS V13.01,2013-11-18 12:10:00,
2013-11-18 06:15:00,38.0,31.7,30.20,NNE,29,0.0,0.0,78,0.00,,,0.00,VWS V13.01,2013-11-18 12:15:00,
2013-11-18 06:20:00,37.4,31.5,30.20,South,177,0.0,0.0,79,0.00,,,0.00,VWS V13.01,2013-11-18 12:20:00,
2013-11-18 06:25:00,37.4,31.8,30.20,South,177,0.0,0.0,80,0.00,,,0.00,VWS V13.01,2013-11-18 12:25:00,
2013-11-18 06:30:00,37.4,32.2,30.20,WSW,242,0.0,0.0,81,0.00,,,0.00,VWS V13.01,2013-11-18 12:30:00,
2013-11-18 06:35:00,37.8,32.5,30.20,WSW,242,0.0,0.0,81,0.00,,,0.00,VWS V13.01,2013-11-18 12:35:00,
2013-11-18 06:40:00,37.6,32.6,30.20,WSW,242,0.0,0.0,82,0.00,,,0.00,VWS V13.01,2013-11-18 12:40:00,
2013-11-18 06:45:00,37.4,32.5,30.23,WSW,242,0.0,0.0,82,0.00,,,0.00,VWS V13.01,2013-11-18 12:45:00,
2013-11-18 06:50:00,37.4,32.5,30.23,SW,231,0.0,0.0,82,0.00,,,0.00,VWS V13.01,2013-11-18 12:50:00,
2013-11-18 06:55:00,37.1,31.8,30.23,South,183,0.0,0.0,81,0.00,,,0.00,VWS V13.01,2013-11-18 12:55:00,
2013-11-18 07:00:00,36.9,31.9,30.23,SSE,164,0.0,0.0,82,0.00,,,0.00,VWS V13.01,2013-11-18 13:00:00,
2013-11-18 07:05:00,37.1,32.1,30.23,South,172,0.0,0.0,82,0.00,,,0.00,VWS V13.01,2013-11-18 13:05:00,
2013-11-18 07:10:00,36.9,32.2,30.23,South,187,0.0,0.0,83,0.00,,,0.00,VWS V13.01,2013-11-18 13:10:00,
2013-11-18 07:15:00,36.9,31.9,30.23,South,187,0.0,0.0,82,0.00,,,0.00,VWS V13.01,2013-11-18 13:15:00,
2013-11-18 07:20:00,37.3,32.9,30.23,South,173,0.0,0.0,84,0.00,,,0.00,VWS V13.01,2013-11-18 13:20:00,
2013-11-18 07:25:00,37.6,32.9,30.23,South,173,0.0,0.0,83,0.00,,,0.00,VWS V13.01,2013-11-18 13:25:00,
2013-11-18 07:30:00,38.2,33.5,30.23,NW,307,0.0,0.0,83,0.00,,,0.00,VWS V13.01,2013-11-18 13:30:00,
2013-11-18 07:35:00,38.7,34.3,30.23,North,6,0.0,0.0,84,0.00,,,0.00,VWS V13.01,2013-11-18 13:35:00,
2013-11-18 07:40:00,39.6,35.2,30.23,North,6,0.0,0.0,84,0.00,,,0.00,VWS V13.01,2013-11-18 13:40:00,
2013-11-18 07:45:00,40.7,35.0,30.26,North,6,0.0,0.0,80,0.00,,,0.00,VWS V13.01,2013-11-18 13:45:00,
2013-11-18 07:50:00,41.4,35.1,30.26,North,6,0.0,0.0,78,0.00,,,0.00,VWS V13.01,2013-11-18 13:50:00,
2013-11-18 07:55:00,42.3,35.9,30.26,North,6,0.0,0.0,78,0.00,,,0.00,VWS V13.01,2013-11-18 13:55:00,
2013-11-18 08:00:00,43.2,36.5,30.26,North,6,0.0,0.0,77,0.00,,,0.00,VWS V13.01,2013-11-18 14:00:00,
2013-11-18 08:04:00,44.8,38.1,30.26,North,6,0.0,0.0,77,0.00,,,0.00,VWS V13.01,2013-11-18 14:04:00,
2013-11-18 08:09:00,45.5,38.4,30.26,North,6,0.0,0.0,76,0.00,,,0.00,VWS V13.01,2013-11-18 14:09:00,
2013-11-18 08:14:00,45.9,38.4,30.26,North,6,0.0,0.0,75,0.00,,,0.00,VWS V13.01,2013-11-18 14:14:00,
2013-11-18 08:19:00,45.9,38.4,30.26,North,6,0.0,0.0,75,0.00,,,0.00,VWS V13.01,2013-11-18 14:19:00,
2013-11-18 08:24:00,46.6,39.5,30.26,North,6,0.0,0.0,76,0.00,,,0.00,VWS V13.01,2013-11-18 14:24:00,
2013-11-18 08:29:00,47.5,40.0,30.26,North,6,0.0,0.0,75,0.00,,,0.00,VWS V13.01,2013-11-18 14:29:00,
2013-11-18 08:34:00,49.1,41.6,30.26,North,6,0.0,0.0,75,0.00,,,0.00,VWS V13.01,2013-11-18 14:34:00,
2013-11-18 08:39:00,49.7,41.0,30.26,North,6,0.0,0.0,72,0.00,,,0.00,VWS V13.01,2013-11-18 14:39:00,
2013-11-18 08:44:00,50.0,40.7,30.26,North,6,0.0,0.0,70,0.00,,,0.00,VWS V13.01,2013-11-18 14:44:00,
2013-11-18 08:49:00,50.9,41.1,30.26,North,6,0.0,0.0,69,0.00,,,0.00,VWS V13.01,2013-11-18 14:49:00,
2013-11-18 08:54:00,52.0,41.4,30.26,NNE,13,0.0,0.0,67,0.00,,,0.00,VWS V13.01,2013-11-18 14:54:00,
2013-11-18 08:59:00,53.1,41.7,30.26,SE,129,0.0,0.0,65,0.00,,,0.00,VWS V13.01,2013-11-18 14:59:00,
2013-11-18 09:04:00,53.5,41.2,30.26,SE,133,0.0,3.1,63,0.00,,,0.00,VWS V13.01,2013-11-18 15:04:00,
2013-11-18 09:09:00,54.2,41.5,30.26,SE,133,0.0,0.0,62,0.00,,,0.00,VWS V13.01,2013-11-18 15:09:00,
2013-11-18 09:14:00,55.1,41.0,30.26,East,89,2.2,2.2,59,0.00,,,0.00,VWS V13.01,2013-11-18 15:14:00,
2013-11-18 09:19:00,56.2,40.2,30.26,ESE,118,2.7,2.7,55,0.00,,,0.00,VWS V13.01,2013-11-18 15:19:00,
2013-11-18 09:24:00,56.9,40.4,30.26,West,278,0.0,2.7,54,0.00,,,0.00,VWS V13.01,2013-11-18 15:24:00,
2013-11-18 09:29:00,57.1,40.6,30.26,East,97,4.9,4.9,54,0.00,,,0.00,VWS V13.01,2013-11-18 15:29:00,
2013-11-18 09:34:00,57.4,40.9,30.26,East,86,2.7,4.9,54,0.00,,,0.00,VWS V13.01,2013-11-18 15:34:00,
2013-11-18 09:39:00,57.2,40.8,30.26,NNW,333,0.0,0.0,54,0.00,,,0.00,VWS V13.01,2013-11-18 15:39:00,
2013-11-18 09:44:00,57.4,40.9,30.26,ENE,63,0.0,2.7,54,0.00,,,0.00,VWS V13.01,2013-11-18 15:44:00,
2013-11-18 09:49:00,58.3,41.8,30.26,NNE,30,4.9,4.9,54,0.00,,,0.00,VWS V13.01,2013-11-18 15:49:00,
2013-11-18 09:51:00,58.3,41.3,30.26,NE,37,4.0,4.0,53,0.00,,,0.00,VWS V13.01,2013-11-18 15:51:00,
2013-11-18 09:56:00,58.1,41.1,30.26,NNW,348,3.1,3.1,53,0.00,,,0.00,VWS V13.01,2013-11-18 15:56:00,
2013-11-18 10:01:00,58.9,41.8,30.26,NNE,24,4.0,4.0,53,0.00,,,0.00,VWS V13.01,2013-11-18 16:01:00,
2013-11-18 10:06:00,58.9,41.8,30.26,SE,136,5.8,5.8,53,0.00,,,0.00,VWS V13.01,2013-11-18 16:06:00,
2013-11-18 10:11:00,59.4,42.3,30.26,NE,43,5.4,5.4,53,0.00,,,0.00,VWS V13.01,2013-11-18 16:11:00,
2013-11-18 10:16:00,59.8,42.6,30.26,ENE,76,3.6,4.9,53,0.00,,,0.00,VWS V13.01,2013-11-18 16:16:00,
2013-11-18 10:21:00,60.5,43.3,30.26,SSW,197,3.1,3.1,53,0.00,,,0.00,VWS V13.01,2013-11-18 16:21:00,
2013-11-18 10:26:00,60.8,43.1,30.26,SSE,166,3.6,3.6,52,0.00,,,0.00,VWS V13.01,2013-11-18 16:26:00,
2013-11-18 10:30:00,60.8,43.6,30.26,South,181,3.1,3.6,53,0.00,,,0.00,VWS V13.01,2013-11-18 16:30:00,
2013-11-18 10:35:00,59.9,42.8,30.26,East,93,2.7,3.6,53,0.00,,,0.00,VWS V13.01,2013-11-18 16:35:00,
2013-11-18 10:40:00,60.1,43.0,30.26,SSE,165,2.7,2.7,53,0.00,,,0.00,VWS V13.01,2013-11-18 16:40:00,
2013-11-18 10:45:00,60.1,43.0,30.26,SE,129,3.6,4.5,53,0.00,,,0.00,VWS V13.01,2013-11-18 16:45:00,
2013-11-18 10:50:00,60.3,43.1,30.26,WSW,254,5.8,5.8,53,0.00,,,0.00,VWS V13.01,2013-11-18 16:50:00,
2013-11-18 10:55:00,59.9,42.8,30.26,SSW,200,5.4,5.4,53,0.00,,,0.00,VWS V13.01,2013-11-18 16:55:00,
2013-11-18 11:02:00,59.9,42.8,30.26,South,173,3.6,3.6,53,0.00,,,0.00,VWS V13.01,2013-11-18 17:02:00,
2013-11-18 11:07:00,60.5,43.3,30.26,ESE,102,3.1,3.1,53,0.00,,,0.00,VWS V13.01,2013-11-18 17:07:00,
2013-11-18 11:12:00,61.4,44.1,30.26,SSE,160,2.7,2.7,53,0.00,,,0.00,VWS V13.01,2013-11-18 17:12:00,
2013-11-18 11:17:00,62.1,44.3,30.26,ESE,114,3.6,3.6,52,0.00,,,0.00,VWS V13.01,2013-11-18 17:17:00,
2013-11-18 11:22:00,62.3,44.5,30.26,ENE,66,4.0,4.0,52,0.00,,,0.00,VWS V13.01,2013-11-18 17:22:00,
2013-11-18 11:27:00,62.6,44.8,30.26,SW,215,5.4,6.7,52,0.00,,,0.00,VWS V13.01,2013-11-18 17:27:00,
2013-11-18 11:32:00,62.5,44.6,30.26,SSW,192,3.1,3.6,52,0.00,,,0.00,VWS V13.01,2013-11-18 17:32:00,
2013-11-18 11:37:00,62.8,45.0,30.26,SSE,147,3.6,3.6,52,0.00,,,0.00,VWS V13.01,2013-11-18 17:37:00,
2013-11-18 11:42:00,63.4,44.9,30.26,SE,131,3.1,3.1,51,0.00,,,0.00,VWS V13.01,2013-11-18 17:42:00,
2013-11-18 11:47:00,63.7,45.3,30.26,ENE,77,2.2,3.1,51,0.00,,,0.00,VWS V13.01,2013-11-18 17:47:00,
2013-11-18 11:52:00,64.6,44.5,30.26,ENE,72,3.1,3.1,48,0.00,,,0.00,VWS V13.01,2013-11-18 17:52:00,
2013-11-18 11:57:00,65.3,44.0,30.26,NNE,12,3.1,4.0,46,0.00,,,0.00,VWS V13.01,2013-11-18 17:57:00,
2013-11-18 12:02:00,65.5,44.2,30.26,NNE,25,3.6,4.0,46,0.00,,,0.00,VWS V13.01,2013-11-18 18:02:00,
2013-11-18 12:07:00,65.3,44.0,30.26,NNE,30,4.0,4.0,46,0.00,,,0.00,VWS V13.01,2013-11-18 18:07:00,
2013-11-18 12:12:00,65.7,43.8,30.26,ESE,118,3.1,3.1,45,0.00,,,0.00,VWS V13.01,2013-11-18 18:12:00,
2013-11-18 12:17:00,66.2,44.3,30.26,ENE,59,4.0,4.0,45,0.00,,,0.00,VWS V13.01,2013-11-18 18:17:00,
2013-11-18 12:22:00,66.2,44.3,30.26,SW,227,2.7,2.7,45,0.00,,,0.00,VWS V13.01,2013-11-18 18:22:00,
2013-11-18 12:27:00,65.9,44.0,30.23,NE,55,4.5,4.9,45,0.00,,,0.00,VWS V13.01,2013-11-18 18:27:00,
2013-11-18 12:32:00,66.1,44.1,30.23,East,80,5.8,5.8,45,0.00,,,0.00,VWS V13.01,2013-11-18 18:32:00,
2013-11-18 12:37:00,66.2,44.3,30.23,NNE,30,3.6,3.6,45,0.00,,,0.00,VWS V13.01,2013-11-18 18:37:00,
2013-11-18 12:42:00,66.4,44.5,30.23,West,277,2.2,2.2,45,0.00,,,0.00,VWS V13.01,2013-11-18 18:42:00,
2013-11-18 12:47:00,66.4,44.5,30.23,WNW,295,4.0,4.0,45,0.00,,,0.00,VWS V13.01,2013-11-18 18:47:00,
2013-11-18 12:52:00,66.2,44.3,30.23,North,8,2.7,3.6,45,0.00,,,0.00,VWS V13.01,2013-11-18 18:52:00,
2013-11-18 12:57:00,66.4,43.3,30.23,SE,143,4.0,4.9,43,0.00,,,0.00,VWS V13.01,2013-11-18 18:57:00,
2013-11-18 13:02:00,66.8,43.6,30.23,NNE,20,5.8,6.3,43,0.00,,,0.00,VWS V13.01,2013-11-18 19:02:00,
2013-11-18 13:07:00,66.8,43.6,30.23,North,351,2.2,2.7,43,0.00,,,0.00,VWS V13.01,2013-11-18 19:07:00,
2013-11-18 13:12:00,67.0,43.8,30.23,NNE,17,2.2,2.2,43,0.00,,,0.00,VWS V13.01,2013-11-18 19:12:00,
2013-11-18 13:17:00,67.7,44.4,30.23,NNE,30,6.3,6.3,43,0.00,,,0.00,VWS V13.01,2013-11-18 19:17:00,
2013-11-18 13:22:00,66.8,43.6,30.23,NNE,22,8.7,10.1,43,0.00,,,0.00,VWS V13.01,2013-11-18 19:22:00,
2013-11-18 13:27:00,66.8,43.6,30.23,ENE,63,6.3,7.6,43,0.00,,,0.00,VWS V13.01,2013-11-18 19:27:00,
2013-11-18 13:32:00,66.6,43.4,30.23,NE,37,8.7,8.7,43,0.00,,,0.00,VWS V13.01,2013-11-18 19:32:00,
2013-11-18 13:37:00,66.4,43.3,30.23,NE,37,8.3,10.1,43,0.00,,,0.00,VWS V13.01,2013-11-18 19:37:00,
2013-11-18 13:41:00,66.8,43.6,30.20,NE,42,2.7,2.7,43,0.00,,,0.00,VWS V13.01,2013-11-18 19:41:00,
2013-11-18 13:46:00,67.1,43.9,30.20,NNE,26,3.6,5.4,43,0.00,,,0.00,VWS V13.01,2013-11-18 19:46:00,
2013-11-18 13:51:00,67.1,43.9,30.20,NE,35,10.5,10.5,43,0.00,,,0.00,VWS V13.01,2013-11-18 19:51:00,
2013-11-18 13:56:00,67.0,43.8,30.20,NE,41,5.8,11.0,43,0.00,,,0.00,VWS V13.01,2013-11-18 19:56:00,
2013-11-18 14:01:00,66.8,43.6,30.20,NE,36,8.3,8.3,43,0.00,,,0.00,VWS V13.01,2013-11-18 20:01:00,
2013-11-18 14:06:00,67.1,43.9,30.20,NE,47,8.3,8.3,43,0.00,,,0.00,VWS V13.01,2013-11-18 20:06:00,
2013-11-18 14:11:00,67.1,43.9,30.20,NNE,25,8.1,8.1,43,0.00,,,0.00,VWS V13.01,2013-11-18 20:11:00,
2013-11-18 14:16:00,67.0,43.8,30.20,NNE,13,6.3,6.3,43,0.00,,,0.00,VWS V13.01,2013-11-18 20:16:00,
2013-11-18 14:21:00,67.0,43.8,30.20,North,10,2.7,3.6,43,0.00,,,0.00,VWS V13.01,2013-11-18 20:21:00,
2013-11-18 14:26:00,67.3,44.1,30.20,NE,54,4.9,5.4,43,0.00,,,0.00,VWS V13.01,2013-11-18 20:26:00,
2013-11-18 14:31:00,67.5,44.2,30.20,ENE,67,5.4,8.3,43,0.00,,,0.00,VWS V13.01,2013-11-18 20:31:00,
2013-11-18 14:36:00,67.5,44.2,30.20,ENE,57,5.8,8.1,43,0.00,,,0.00,VWS V13.01,2013-11-18 20:36:00,
2013-11-18 14:41:00,67.5,44.2,30.20,ENE,65,6.7,7.6,43,0.00,,,0.00,VWS V13.01,2013-11-18 20:41:00,
2013-11-18 14:46:00,67.5,44.2,30.20,NNE,31,3.6,4.0,43,0.00,,,0.00,VWS V13.01,2013-11-18 20:46:00,
2013-11-18 14:51:00,67.5,44.2,30.20,NNE,16,5.4,5.8,43,0.00,,,0.00,VWS V13.01,2013-11-18 20:51:00,
2013-11-18 14:56:00,67.7,44.4,30.20,NNE,24,3.1,4.0,43,0.00,,,0.00,VWS V13.01,2013-11-18 20:56:00,
2013-11-18 15:01:00,67.1,43.9,30.20,NNE,33,8.3,8.7,43,0.00,,,0.00,VWS V13.01,2013-11-18 21:01:00,
2013-11-18 15:07:00,66.8,43.6,30.20,NE,40,6.3,7.6,43,0.00,,,0.00,VWS V13.01,2013-11-18 21:07:00,
2013-11-18 15:12:00,66.6,43.4,30.20,NE,50,8.1,8.1,43,0.00,,,0.00,VWS V13.01,2013-11-18 21:12:00,
2013-11-18 15:17:00,66.6,43.4,30.20,NNE,31,6.3,6.3,43,0.00,,,0.00,VWS V13.01,2013-11-18 21:17:00,
2013-11-18 15:21:00,66.8,43.6,30.20,NNW,336,6.3,6.3,43,0.00,,,0.00,VWS V13.01,2013-11-18 21:21:00,
2013-11-18 15:26:00,66.6,43.4,30.20,NE,35,3.6,5.8,43,0.00,,,0.00,VWS V13.01,2013-11-18 21:26:00,
2013-11-18 15:31:00,66.2,43.1,30.20,NNE,33,5.8,5.8,43,0.00,,,0.00,VWS V13.01,2013-11-18 21:31:00,
2013-11-18 15:36:00,66.1,42.9,30.20,ENE,73,4.9,4.9,43,0.00,,,0.00,VWS V13.01,2013-11-18 21:36:00,
2013-11-18 15:41:00,65.9,42.8,30.23,NNE,19,8.7,8.7,43,0.00,,,0.00,VWS V13.01,2013-11-18 21:41:00,
2013-11-18 15:46:00,65.9,42.8,30.23,NNE,26,3.6,3.6,43,0.00,,,0.00,VWS V13.01,2013-11-18 21:46:00,
2013-11-18 15:51:00,65.7,42.6,30.23,NE,34,5.8,5.8,43,0.00,,,0.00,VWS V13.01,2013-11-18 21:51:00,
2013-11-18 15:56:00,65.7,42.6,30.23,NNE,21,3.6,4.0,43,0.00,,,0.00,VWS V13.01,2013-11-18 21:56:00,
2013-11-18 16:01:00,65.5,42.5,30.23,North,10,7.6,8.3,43,0.00,,,0.00,VWS V13.01,2013-11-18 22:01:00,
2013-11-18 16:06:00,65.3,42.3,30.23,North,3,4.9,4.9,43,0.00,,,0.00,VWS V13.01,2013-11-18 22:06:00,
2013-11-18 16:11:00,65.3,42.3,30.23,NNE,30,2.7,2.7,43,0.00,,,0.00,VWS V13.01,2013-11-18 22:11:00,
2013-11-18 16:16:00,65.0,42.0,30.23,NE,49,3.1,4.0,43,0.00,,,0.00,VWS V13.01,2013-11-18 22:16:00,
2013-11-18 16:21:00,64.8,41.8,30.23,East,79,6.3,6.3,43,0.00,,,0.00,VWS V13.01,2013-11-18 22:21:00,
2013-11-18 16:26:00,64.4,41.5,30.23,ENE,58,4.9,4.9,43,0.00,,,0.00,VWS V13.01,2013-11-18 22:26:00,
2013-11-18 16:31:00,64.3,41.3,30.23,NE,50,2.7,3.1,43,0.00,,,0.00,VWS V13.01,2013-11-18 22:31:00,
2013-11-18 16:36:00,63.9,41.0,30.23,NE,40,2.7,4.0,43,0.00,,,0.00,VWS V13.01,2013-11-18 22:36:00,
2013-11-18 16:41:00,63.5,41.3,30.23,NE,53,3.6,4.0,44,0.00,,,0.00,VWS V13.01,2013-11-18 22:41:00,
2013-11-18 16:46:00,63.2,40.9,30.23,NE,42,3.1,3.1,44,0.00,,,0.00,VWS V13.01,2013-11-18 22:46:00,
2013-11-18 16:51:00,62.8,40.6,30.23,NNE,23,3.6,3.6,44,0.00,,,0.00,VWS V13.01,2013-11-18 22:51:00,
2013-11-18 16:56:00,62.5,40.3,30.23,NE,41,3.6,3.6,44,0.00,,,0.00,VWS V13.01,2013-11-18 22:56:00,
2013-11-18 17:01:00,61.9,39.8,30.23,NE,43,2.7,2.7,44,0.00,,,0.00,VWS V13.01,2013-11-18 23:01:00,
2013-11-18 17:06:00,61.6,39.5,30.23,NNE,27,3.1,3.6,44,0.00,,,0.00,VWS V13.01,2013-11-18 23:06:00,
2013-11-18 17:11:00,61.4,39.3,30.23,North,358,3.1,4.0,44,0.00,,,0.00,VWS V13.01,2013-11-18 23:11:00,
2013-11-18 17:16:00,61.2,39.1,30.23,NNE,28,2.7,2.7,44,0.00,,,0.00,VWS V13.01,2013-11-18 23:16:00,
2013-11-18 17:21:00,60.7,38.6,30.23,NNE,30,2.2,2.7,44,0.00,,,0.00,VWS V13.01,2013-11-18 23:21:00,
2013-11-18 17:26:00,60.1,38.7,30.23,NNE,19,0.0,2.2,45,0.00,,,0.00,VWS V13.01,2013-11-18 23:26:00,
2013-11-18 17:31:00,59.6,38.2,30.23,North,9,2.2,2.2,45,0.00,,,0.00,VWS V13.01,2013-11-18 23:31:00,
2013-11-18 17:36:00,58.9,37.6,30.23,North,9,0.0,2.2,45,0.00,,,0.00,VWS V13.01,2013-11-18 23:36:00,
2013-11-18 17:41:00,58.1,36.9,30.26,NE,34,2.7,2.7,45,0.00,,,0.00,VWS V13.01,2013-11-18 23:41:00,
2013-11-18 17:46:00,57.2,36.1,30.26,NE,37,2.2,2.7,45,0.00,,,0.00,VWS V13.01,2013-11-18 23:46:00,
2013-11-18 17:51:00,56.5,35.5,30.26,NE,37,2.2,2.2,45,0.00,,,0.00,VWS V13.01,2013-11-18 23:51:00,
2013-11-18 17:56:00,55.8,34.8,30.26,NE,37,0.0,0.0,45,0.00,,,0.00,VWS V13.01,2013-11-18 23:56:00,
2013-11-18 18:01:00,55.4,34.5,30.26,NE,37,0.0,0.0,45,0.00,,,0.00,VWS V13.01,2013-11-19 00:01:00,
2013-11-18 18:06:00,54.9,34.0,30.26,NE,37,0.0,0.0,45,0.00,,,0.00,VWS V13.01,2013-11-19 00:06:00,
2013-11-18 18:11:00,54.4,34.0,30.26,NE,37,3.1,3.1,46,0.00,,,0.00,VWS V13.01,2013-11-19 00:11:00,
2013-11-18 18:16:00,53.8,34.6,30.26,NNE,29,2.2,2.7,48,0.00,,,0.00,VWS V13.01,2013-11-19 00:16:00,
2013-11-18 18:21:00,53.5,34.3,30.26,NNE,19,2.2,2.2,48,0.00,,,0.00,VWS V13.01,2013-11-19 00:21:00,
2013-11-18 18:26:00,53.5,34.3,30.26,NNE,13,2.2,2.2,48,0.00,,,0.00,VWS V13.01,2013-11-19 00:26:00,
2013-11-18 18:31:00,53.3,35.6,30.26,NNE,18,2.7,2.7,51,0.00,,,0.00,VWS V13.01,2013-11-19 00:31:00,
2013-11-18 18:36:00,52.2,36.1,30.26,NNE,29,2.2,2.2,54,0.00,,,0.00,VWS V13.01,2013-11-19 00:36:00,
2013-11-18 18:41:00,50.9,34.9,30.26,NE,34,3.1,3.1,54,0.00,,,0.00,VWS V13.01,2013-11-19 00:41:00,
2013-11-18 18:46:00,50.8,33.8,30.26,NNE,33,3.1,3.6,52,0.00,,,0.00,VWS V13.01,2013-11-19 00:46:00,
2013-11-18 18:51:00,51.5,34.0,30.26,NNE,24,2.7,2.7,51,0.00,,,0.00,VWS V13.01,2013-11-19 00:51:00,
2013-11-18 18:56:00,52.4,33.8,30.26,NNE,23,2.7,3.1,49,0.00,,,0.00,VWS V13.01,2013-11-19 00:56:00,
2013-11-18 19:01:00,52.7,35.1,30.26,NNE,19,0.0,2.7,51,0.00,,,0.00,VWS V13.01,2013-11-19 01:01:00,
2013-11-18 19:06:00,52.4,34.8,30.26,North,11,2.7,2.7,51,0.00,,,0.00,VWS V13.01,2013-11-19 01:06:00,
2013-11-18 19:11:00,51.5,34.0,30.26,NNE,20,3.1,3.1,51,0.00,,,0.00,VWS V13.01,2013-11-19 01:11:00,
2013-11-18 19:16:00,50.8,34.7,30.26,NE,38,3.6,3.6,54,0.00,,,0.00,VWS V13.01,2013-11-19 01:16:00,
2013-11-18 19:21:00,50.2,34.2,30.26,NE,38,2.2,2.2,54,0.00,,,0.00,VWS V13.01,2013-11-19 01:21:00,
2013-11-18 19:26:00,49.9,33.9,30.29,NE,42,3.1,3.1,54,0.00,,,0.00,VWS V13.01,2013-11-19 01:26:00,
2013-11-18 19:31:00,49.9,33.9,30.29,NE,43,2.7,2.7,54,0.00,,,0.00,VWS V13.01,2013-11-19 01:31:00,
2013-11-18 19:36:00,50.0,34.1,30.29,NE,42,2.2,2.7,54,0.00,,,0.00,VWS V13.01,2013-11-19 01:36:00,
2013-11-18 19:41:00,50.0,34.1,30.29,NE,34,2.7,2.7,54,0.00,,,0.00,VWS V13.01,2013-11-19 01:41:00,
2013-11-18 19:44:00,49.7,34.2,30.29,NE,34,2.2,2.2,55,0.00,,,0.00,VWS V13.01,2013-11-19 01:44:00,
2013-11-18 19:49:00,48.8,33.8,30.29,NE,34,2.2,2.2,56,0.00,,,0.00,VWS V13.01,2013-11-19 01:49:00,
2013-11-18 19:54:00,48.2,32.8,30.29,NNE,29,2.7,2.7,55,0.00,,,0.00,VWS V13.01,2013-11-19 01:54:00,
2013-11-18 19:59:00,48.4,33.5,30.29,NNE,29,0.0,0.0,56,0.00,,,0.00,VWS V13.01,2013-11-19 01:59:00,
2013-11-18 20:04:00,48.6,33.2,30.29,NNE,29,2.2,2.2,55,0.00,,,0.00,VWS V13.01,2013-11-19 02:04:00,
2013-11-18 20:09:00,48.8,33.3,30.29,NNE,29,0.0,0.0,55,0.00,,,0.00,VWS V13.01,2013-11-19 02:09:00,
2013-11-18 20:14:00,49.1,33.7,30.29,NNE,29,3.1,3.1,55,0.00,,,0.00,VWS V13.01,2013-11-19 02:14:00,
2013-11-18 20:19:00,49.3,33.8,30.29,NE,39,3.1,4.0,55,0.00,,,0.00,VWS V13.01,2013-11-19 02:19:00,
2013-11-18 20:24:00,49.5,33.6,30.29,NNE,30,3.1,3.6,54,0.00,,,0.00,VWS V13.01,2013-11-19 02:24:00,
2013-11-18 20:29:00,49.5,34.0,30.29,NNE,31,2.7,2.7,55,0.00,,,0.00,VWS V13.01,2013-11-19 02:29:00,
2013-11-18 20:34:00,49.3,33.8,30.29,NNE,30,3.1,3.1,55,0.00,,,0.00,VWS V13.01,2013-11-19 02:34:00,
2013-11-18 20:39:00,49.1,33.7,30.29,NE,36,2.2,3.1,55,0.00,,,0.00,VWS V13.01,2013-11-19 02:39:00,
2013-11-18 20:44:00,49.0,33.5,30.29,NNE,30,2.7,3.1,55,0.00,,,0.00,VWS V13.01,2013-11-19 02:44:00,
2013-11-18 20:49:00,48.8,33.3,30.29,NE,35,2.7,3.6,55,0.00,,,0.00,VWS V13.01,2013-11-19 02:49:00,
2013-11-18 20:53:00,48.8,33.3,30.29,NE,35,0.0,0.0,55,0.00,,,0.00,VWS V13.01,2013-11-19 02:53:00,
2013-11-18 20:58:00,48.6,33.2,30.29,NE,35,0.0,0.0,55,0.00,,,0.00,VWS V13.01,2013-11-19 02:58:00,
2013-11-18 21:03:00,48.1,32.7,30.29,NE,35,0.0,0.0,55,0.00,,,0.00,VWS V13.01,2013-11-19 03:03:00,
2013-11-18 21:08:00,47.3,32.5,30.29,NE,35,0.0,0.0,56,0.00,,,0.00,VWS V13.01,2013-11-19 03:08:00,
2013-11-18 21:13:00,46.8,32.0,30.29,NE,35,0.0,0.0,56,0.00,,,0.00,VWS V13.01,2013-11-19 03:13:00,
2013-11-18 21:18:00,45.9,32.4,30.29,NE,35,0.0,0.0,59,0.00,,,0.00,VWS V13.01,2013-11-19 03:18:00,
2013-11-18 21:23:00,45.4,32.3,30.29,NE,35,0.0,0.0,60,0.00,,,0.00,VWS V13.01,2013-11-19 03:23:00,
2013-11-18 21:28:00,45.0,32.4,30.29,NE,35,0.0,0.0,61,0.00,,,0.00,VWS V13.01,2013-11-19 03:28:00,
2013-11-18 21:33:00,45.0,32.4,30.29,NE,35,0.0,0.0,61,0.00,,,0.00,VWS V13.01,2013-11-19 03:33:00,
2013-11-18 21:38:00,45.0,32.8,30.29,NE,35,0.0,0.0,62,0.00,,,0.00,VWS V13.01,2013-11-19 03:38:00,
2013-11-18 21:43:00,45.0,33.2,30.29,NE,35,0.0,0.0,63,0.00,,,0.00,VWS V13.01,2013-11-19 03:43:00,
2013-11-18 21:48:00,44.8,34.2,30.29,NE,35,0.0,0.0,66,0.00,,,0.00,VWS V13.01,2013-11-19 03:48:00,
2013-11-18 21:53:00,44.8,34.2,30.29,NE,35,0.0,0.0,66,0.00,,,0.00,VWS V13.01,2013-11-19 03:53:00,
2013-11-18 21:58:00,44.5,34.9,30.29,NE,35,0.0,0.0,69,0.00,,,0.00,VWS V13.01,2013-11-19 03:58:00,
2013-11-18 22:03:00,44.1,34.6,30.29,NE,35,0.0,0.0,69,0.00,,,0.00,VWS V13.01,2013-11-19 04:03:00,
2013-11-18 22:07:00,43.9,34.4,30.29,NE,35,0.0,0.0,69,0.00,,,0.00,VWS V13.01,2013-11-19 04:07:00,
2013-11-18 22:12:00,43.7,33.9,30.29,NE,35,0.0,0.0,68,0.00,,,0.00,VWS V13.01,2013-11-19 04:12:00,
2013-11-18 22:17:00,43.7,33.9,30.29,NE,35,0.0,0.0,68,0.00,,,0.00,VWS V13.01,2013-11-19 04:17:00,
2013-11-18 22:22:00,43.6,33.7,30.29,NE,35,0.0,0.0,68,0.00,,,0.00,VWS V13.01,2013-11-19 04:22:00,
2013-11-18 22:27:00,43.2,33.4,30.29,NE,35,0.0,0.0,68,0.00,,,0.00,VWS V13.01,2013-11-19 04:27:00,
2013-11-18 22:32:00,43.2,33.4,30.29,NE,35,0.0,0.0,68,0.00,,,0.00,VWS V13.01,2013-11-19 04:32:00,
2013-11-18 22:37:00,43.0,34.3,30.29,NE,35,0.0,0.0,71,0.00,,,0.00,VWS V13.01,2013-11-19 04:37:00,
2013-11-18 22:42:00,43.0,35.3,30.29,NE,35,0.0,0.0,74,0.00,,,0.00,VWS V13.01,2013-11-19 04:42:00,
2013-11-18 22:47:00,42.8,35.1,30.29,NE,35,0.0,0.0,74,0.00,,,0.00,VWS V13.01,2013-11-19 04:47:00,
2013-11-18 22:52:00,42.8,34.8,30.29,NE,35,0.0,0.0,73,0.00,,,0.00,VWS V13.01,2013-11-19 04:52:00,
2013-11-18 22:57:00,42.7,34.6,30.29,NE,35,0.0,0.0,73,0.00,,,0.00,VWS V13.01,2013-11-19 04:57:00,
2013-11-18 23:01:00,42.5,34.1,30.29,NE,35,0.0,0.0,72,0.00,,,0.00,VWS V13.01,2013-11-19 05:01:00,
2013-11-18 23:06:00,42.3,33.6,30.29,NE,35,0.0,0.0,71,0.00,,,0.00,VWS V13.01,2013-11-19 05:06:00,
2013-11-18 23:11:00,41.9,33.9,30.29,NE,35,0.0,0.0,73,0.00,,,0.00,VWS V13.01,2013-11-19 05:11:00,
2013-11-18 23:16:00,41.9,34.9,30.29,NE,35,0.0,0.0,76,0.00,,,0.00,VWS V13.01,2013-11-19 05:16:00,
2013-11-18 23:21:00,41.9,35.3,30.29,NE,35,0.0,0.0,77,0.00,,,0.00,VWS V13.01,2013-11-19 05:21:00,
2013-11-18 23:26:00,41.9,35.3,30.29,NE,35,0.0,0.0,77,0.00,,,0.00,VWS V13.01,2013-11-19 05:26:00,
2013-11-18 23:31:00,41.9,34.9,30.29,NE,35,0.0,0.0,76,0.00,,,0.00,VWS V13.01,2013-11-19 05:31:00,
2013-11-18 23:36:00,42.1,34.8,30.29,NE,35,0.0,0.0,75,0.00,,,0.00,VWS V13.01,2013-11-19 05:36:00,
2013-11-18 23:41:00,42.1,34.8,30.29,NE,35,0.0,0.0,75,0.00,,,0.00,VWS V13.01,2013-11-19 05:41:00,
2013-11-18 23:46:00,42.1,34.4,30.29,NE,35,0.0,0.0,74,0.00,,,0.00,VWS V13.01,2013-11-19 05:46:00,
2013-11-18 23:51:00,41.9,34.3,30.29,NE,35,0.0,0.0,74,0.00,,,0.00,VWS V13.01,2013-11-19 05:51:00,
2013-11-18 23:56:00,41.6,33.9,30.29,NE,35,0.0,0.0,74,0.00,,,0.00,VWS V13.01,2013-11-19 05:56:00,